Regional Weather Roundup
Issued by NWS

Home | Current Version | Previous Version | Graphics & Text | Print | Product List | Glossary On
Versions: 1 2 3 4 5 6 7 8 9 10 11 12 13 14 15 16 17 18 19 20 21 22 23 24 25 26 27 28 29 30 31 32 33 34 35 36 37 38 39 40 41 42 43 44 45 46 47 48 49
000
ASUS45 KSLC 242310
RWRUT

UTAH REGIONAL WEATHER ROUNDUP
NATIONAL WEATHER SERVICE SALT LAKE CITY UT
400 PM MST WED DEC 24 2014

UTZ001>011-023>025-250000-

NORTHERN UTAH

CITY           SKY/WX    TMP DP  RH WIND       PRES   REMARKS
BRIGHAM CITY   CLOUDY    38  20  48 CALM      29.74F
HILL AFB       CLOUDY    36  19  49 E3        29.72F
LOGAN          MOCLDY    34  24  67 N8        29.72F WCI  27
OGDEN          CLOUDY    39  18  42 CALM      29.72F
PROVO AIRPORT  NOT AVBL
SALT LAKE CITY CLOUDY    43  21  41 S10       29.71F
VERNAL         CLOUDY    30  14  51 E3        29.86F
WENDOVER       MOSUNNY   34  19  55 E6        29.71F WCI  29
HEBER CITY     CLOUDY    34  23  64 NE5       29.76F WCI  30
WEST JORDAN    MOCLDY    37  25  60 S21G29    29.72F WCI  27

$$

UTZ012>022-026-027-250000-

SOUTHERN/CENTRAL UTAH

CITY           SKY/WX    TMP DP  RH WIND       PRES   REMARKS
BLANDING       CLOUDY    34  13  42 S3        30.04F
BRYCE CANYON   CLOUDY    31  14  49 VRB3      29.93F
CEDAR CITY     CLOUDY    38  13  35 S15       29.88F WCI  29
DELTA          CLOUDY    40  21  46 S12       29.77F WCI  33
MILFORD        CLOUDY    45  20  36 S29G35    29.81F
MOAB/CYNLANDS  CLEAR     35  16  45 NE5       29.93F WCI  31
PRICE          CLOUDY    31  10  41 SE5       29.90F WCI  26
ST GEORGE      CLOUDY    45  16  31 CALM      29.97F
KANAB          CLOUDY    41  18  38 MISG      29.99F

$$

REGIONAL REPORTS     COLORADO/ARIZONA

CITY           SKY/WX    TMP DP  RH WIND       PRES   REMARKS
CRAIG, CO      MOCLDY    27  13  55 NE8       29.85F WCI  19
GRAND JUNCTION MOCLDY    33  11  39 CALM      29.95F
RIFLE          MOCLDY    29  11  47 CALM      29.94F
MONTROSE       PTCLDY    34  10  37 CALM      29.95F
CORTEZ         CLEAR     35  13  40 SW9       29.98F WCI  28
PAGE, AZ       CLOUDY    42  14  32 E5        29.95F
GRAND CANYON   CLOUDY    44  16  32 SW6       29.98F
KINGMAN        CLOUDY    52  12  20 SW10      29.97S
FLAGSTAFF      PTSUNNY   44  15  31 SW14      30.01S

$$

REGIONAL REPORTS    NEVADA/IDAHO/WYOMING

CITY           SKY/WX    TMP DP  RH WIND       PRES   REMARKS
LAS VEGAS, NV  CLOUDY    51  16  24 SE5       29.90F
ELY            CLOUDY    40  25  55 SW20G25   29.77F WCI  30
ELKO           CLOUDY    42  29  59 CALM      29.61F
POCATELLO, ID  CLOUDY    35  28  75 E8        29.64F WCI  29
EVANSTON, WY   CLOUDY    35  23  61 SW20      29.71F WCI  24
ROCK SPRINGS   CLOUDY    31  19  61 SE13      29.70F WCI  21
KEMMERER       CLOUDY    30  21  69 N3        29.69F

$$



USA.gov is the U.S. government's official web portal to all federal, state and local government web resources and services.